GW5434 Weather Reports


Display with metric or nautical units.
time (UTC)temp
F
wind
direction
speed
MPH
gust
MPH
rain 1hr
in
rain 24hr
in
rain mn
in
humidity
%
barometer
mb
20260904123012 76 152 0.0 0.0 0.00 0.00 0.00 91 1015.9
20260904121516 75 19 0.0 0.0 0.00 0.00 0.00 92 1015.7
20260904120025 75 19 0.0 0.0 0.00 0.00 0.00 92 1015.6
20260904114535 74 349 0.0 0.0 0.00 0.00 0.00 93 1015.4
20260904113010 74 22 0.0 0.0 0.00 0.00 0.00 93 1015.4
20260904111524 74 22 0.0 0.0 0.00 0.00 0.00 93 1015.3
20260904110022 74 108 0.0 0.0 0.00 0.00 0.00 92 1015.2
20260904104523 75 108 0.0 0.0 0.00 0.00 0.00 92 1015.1
20260904103031 75 108 0.0 0.0 0.00 0.00 0.00 91 1015.1
20260904101511 75 108 0.0 0.0 0.00 0.00 0.00 91 1015.0
20260904100017 75 106 0.0 0.0 0.00 0.00 0.00 91 1014.9
20260904094534 75 128 0.0 0.0 0.00 0.00 0.00 91 1014.9
20260904093028 75 120 0.0 0.0 0.00 0.00 0.00 91 1014.9
20260904091530 75 120 0.0 0.0 0.00 0.00 0.00 91 1014.8
20260904090013 75 120 0.0 0.0 0.00 0.00 0.00 90 1014.8
20260904084518 75 127 0.0 0.0 0.00 0.00 0.00 90 1014.8
20260904083034 75 143 0.0 0.0 0.00 0.00 0.00 90 1014.7
20260904081529 75 148 0.0 0.0 0.00 0.00 0.00 91 1014.7
20260904080030 75 148 0.0 0.0 0.00 0.00 0.00 91 1014.7
20260904074516 75 148 0.0 0.0 0.00 0.00 0.00 90 1014.7
20260904073023 75 148 0.0 0.0 0.00 0.00 0.00 91 1014.7
20260904071524 75 148 0.0 0.0 0.00 0.00 0.00 90 1014.7
20260904070029 75 148 0.0 0.0 0.00 0.00 0.00 91 1014.8
20260904064532 75 148 0.0 0.0 0.00 0.00 0.00 91 1014.9
20260904063024 75 148 0.0 0.0 0.00 0.00 0.00 91 1015.0
20260904061521 75 148 0.0 0.0 0.00 0.00 0.00 91 1015.0
20260904060027 75 148 0.0 0.0 0.00 0.00 0.00 90 1015.0
20260904054532 75 119 0.0 0.0 0.00 0.00 0.00 89 1014.9
20260904053032 75 119 0.0 0.0 0.00 0.00 0.00 90 1015.0
20260904051518 75 103 0.0 0.0 0.00 0.00 0.00 89 1015.0
20260904050025 75 111 0.0 0.0 0.00 0.00 0.00 90 1015.0
20260904044503 75 110 0.0 0.0 0.00 0.00 0.00 89 1015.1
20260904043007 75 110 0.0 0.0 0.00 0.00 0.00 90 1015.0
20260904041514 75 110 0.0 0.0 0.00 0.00 0.00 89 1015.1
20260904040021 75 143 0.0 0.0 0.00 0.00 0.00 89 1015.1
20260904034503 75 143 0.0 0.0 0.00 0.00 0.00 89 1015.2
20260904033007 76 143 0.0 0.0 0.00 0.00 0.00 88 1015.3
20260904031508 76 154 0.0 0.0 0.00 0.00 0.00 88 1015.5
20260904030017 77 155 0.0 0.0 0.00 0.00 0.00 87 1015.5
20260904024520 77 154 0.0 0.0 0.00 0.00 0.00 87 1015.6
20260904023003 77 15 0.0 0.0 0.00 0.00 0.00 85 1015.6
20260904021509 78 331 0.0 0.0 0.00 0.00 0.00 85 1015.5
20260904020012 78 117 0.0 0.0 0.00 0.00 0.00 84 1015.5
20260904014518 78 165 0.0 0.0 0.00 0.00 0.00 85 1015.4
20260904013025 79 98 0.0 0.0 0.00 0.00 0.00 83 1015.2
20260904011504 79 271 0.0 0.0 0.00 0.00 0.00 82 1014.9
20260904010015 79 271 0.0 0.0 0.00 0.00 0.00 81 1014.9
20260904004514 80 286 0.0 0.0 0.00 0.00 0.00 81 1014.8
20260904003025 81 285 1.0 3.0 0.00 0.00 0.00 80 1014.7
20260904001524 82 327 0.0 3.0 0.00 0.00 0.00 78 1014.4
20260904000006 83 279 0.0 4.0 0.00 0.00 0.00 77 1014.3
20260903234513 85 209 0.0 2.0 0.00 0.00 0.00 75 1014.4
20260903233015 86 211 0.0 0.0 0.00 0.00 0.00 75 1014.3
20260903231532 87 148 0.0 3.0 0.00 0.00 0.00 73 1014.3
20260903230032 87 129 1.0 2.0 0.00 0.00 0.00 73 1014.2
20260903224525 87 139 0.0 3.0 0.00 0.00 0.00 73 1014.2
20260903223013 88 276 1.0 4.0 0.00 0.00 0.00 73 1014.1
20260903221520 90 215 1.0 5.0 0.00 0.00 0.00 72 1013.8
20260903220030 92 221 0.0 0.0 0.00 0.00 0.00 69 1013.9
20260903214537 92 175 0.0 0.0 0.00 0.00 0.00 67 1013.7
20260903213011 92 322 1.0 1.0 0.00 0.00 0.00 65 1013.3
20260903211514 93 277 0.0 5.0 0.00 0.00 0.00 63 1013.3
20260903210020 93 290 2.0 3.0 0.00 0.00 0.00 63 1013.5
20260903204527 93 307 3.0 8.0 0.00 0.00 0.00 62 1013.7
20260903203029 94 316 1.0 3.0 0.00 0.00 0.00 60 1013.8
20260903201513 94 238 1.0 3.0 0.00 0.00 0.00 54 1014.0
20260903200016 95 323 2.0 4.0 0.00 0.00 0.00 55 1014.1
20260903194506 94 72 1.0 7.0 0.00 0.00 0.00 55 1014.2
20260903193004 96 26 2.0 6.0 0.00 0.00 0.00 53 1014.5
20260903191508 98 326 2.0 5.0 0.00 0.00 0.00 47 1014.5
20260903190011 97 344 3.0 9.0 0.00 0.00 0.00 53 1014.7
20260903184504 99 101 2.0 6.0 0.00 0.00 0.00 47 1014.9
20260903183006 98 38 3.0 11.0 0.00 0.00 0.00 50 1015.1
20260903181507 98 137 3.0 5.0 0.00 0.00 0.00 52 1015.3
20260903180010 96 115 1.0 4.0 0.00 0.00 0.00 57 1015.6
20260903174514 95 123 2.0 8.0 0.00 0.00 0.00 56 1015.9
20260903173003 96 220 0.0 6.0 0.00 0.00 0.00 55 1016.0
20260903171506 95 30 2.0 6.0 0.00 0.00 0.00 56 1016.2
20260903170007 94 92 1.0 4.0 0.00 0.00 0.00 56 1016.4
20260903164512 94 282 2.0 7.0 0.00 0.00 0.00 58 1016.6
20260903163015 93 23 2.0 5.0 0.00 0.00 0.00 61 1016.8
20260903161519 93 110 2.0 4.0 0.00 0.00 0.00 60 1016.8
20260903160003 92 112 1.0 4.0 0.00 0.00 0.00 65 1016.7
20260903154505 91 308 2.0 5.0 0.00 0.00 0.00 66 1016.8
20260903153015 90 93 1.0 5.0 0.00 0.00 0.00 69 1016.8
20260903151518 88 302 2.0 6.0 0.00 0.00 0.00 70 1016.7
20260903150022 88 70 1.0 5.0 0.00 0.00 0.00 72 1016.6
20260903144505 87 295 2.0 6.0 0.00 0.00 0.00 74 1016.7
20260903143010 86 67 3.0 7.0 0.00 0.00 0.00 76 1016.8
20260903141515 85 117 0.0 5.0 0.00 0.00 0.00 78 1016.7
20260903140021 84 327 1.0 5.0 0.00 0.00 0.00 80 1016.8
20260903134519 82 335 1.0 5.0 0.00 0.00 0.00 82 1016.7
20260903133008 81 321 0.0 0.0 0.00 0.00 0.00 84 1016.8
20260903131511 79 331 0.0 0.0 0.00 0.00 0.00 86 1017.0
20260903130014 77 114 0.0 0.0 0.00 0.00 0.00 91 1016.8
20260903124523 74 114 0.0 0.0 0.00 0.00 0.00 94 1016.8